This is the latest recevied weather packets stored in our database for station/object G4KVI. If no packets are shown the sender has not sent any weather packets the latest 10 day(s).
| Time | Temp. | Humidity | Pressure | Rain* | Wind** | Luminosity | Snow |
|---|---|---|---|---|---|---|---|
| 1778139904 | 9.44° C | 79% | 1017.9 hPa | 0 mm | - | 203 W/m² | - |
| 1778139604 | 9.44° C | 79% | 1017.9 hPa | 0 mm | - | 171 W/m² | - |
| 1778139304 | 8.89° C | 79% | 1017.7 hPa | 0 mm | - | 182 W/m² | - |
| 1778139004 | 8.89° C | 80% | 1017.7 hPa | 0 mm | - | 223 W/m² | - |
| 1778138704 | 8.33° C | 80% | 1017.7 hPa | 0 mm | - | 203 W/m² | - |
| 1778138404 | 8.33° C | 81% | 1017.7 hPa | 0 mm | - | 177 W/m² | - |
| 1778138104 | 8.33° C | 82% | 1017.7 hPa | 0 mm | - | 195 W/m² | - |
| 1778137804 | 8.33° C | 83% | 1017.5 hPa | 0 mm | - | 150 W/m² | - |
| 1778137504 | 7.78° C | 83% | 1017.6 hPa | 0 mm | - | 135 W/m² | - |
| 1778137204 | 7.78° C | 83% | 1017.7 hPa | 0 mm | - | 123 W/m² | - |
| 1778136904 | 7.78° C | 83% | 1017.7 hPa | 0 mm | - | 121 W/m² | - |
| 1778136604 | 7.78° C | 83% | 1017.7 hPa | 0 mm | - | 111 W/m² | - |
| 1778136304 | 7.78° C | 84% | 1017.6 hPa | 0 mm | - | 102 W/m² | - |
| 1778136004 | 7.22° C | 84% | 1017.5 hPa | 0 mm | - | 93 W/m² | - |
| 1778135704 | 7.22° C | 84% | 1017.6 hPa | 0 mm | - | 83 W/m² | - |
| 1778135404 | 7.22° C | 84% | 1017.5 hPa | 0 mm | - | 72 W/m² | - |
| 1778135104 | 7.22° C | 85% | 1017.3 hPa | 0 mm | - | 66 W/m² | - |
| 1778134804 | 7.22° C | 85% | 1017.6 hPa | 0 mm | - | 56 W/m² | - |
| 1778134504 | 7.22° C | 85% | 1017.5 hPa | 0 mm | - | 47 W/m² | - |
| 1778134204 | 7.22° C | 85% | 1017.2 hPa | 0 mm | - | 40 W/m² | - |
| 1778133904 | 7.22° C | 85% | 1017.6 hPa | 0 mm | - | 33 W/m² | - |
| 1778133604 | 6.67° C | 85% | 1017.2 hPa | 0 mm | - | 30 W/m² | - |
| 1778133304 | 6.67° C | 85% | 1017.3 hPa | 0 mm | - | 27 W/m² | - |
| 1778133004 | 7.22° C | 85% | 1017.4 hPa | 0 mm | - | 26 W/m² | - |
| 1778132704 | 6.67° C | 85% | 1017.5 hPa | 0 mm | - | 24 W/m² | - |
* Rain latest hour (hover to see other rain measurements)
** Current wind speed in m/s (hover to see current wind gust speed)